SCP
0 0 0 0 0 0 0 0 0 0 0 0 0 0 0 0 0 0 0 0 0 0 0 0 0 0 0 0 0 0 0 0 0 0 0 0 0 0 0 0 0 0 0 0 0 0 0 0 0 0 0 0 0 0
0 0 0 0 0 0 0 0 0 0 0 0 0 0 0 0 0 0 0 0 0 0 0 0 0 0 0 0 0 0 0 0 0 0 0 0 0 0 0 0 0 0 0 0 0 0 0 0 0 0 0 0 0 0
0 0 0 0 0 0 0 0 0 0 0 0 0 0 0 0 0 0 0 0 0 0 0 0 0 0 0 0 0 0 0 0 0 0 0 0 0 0 0 0 0 0 0 0 0 0 0 0 0 0 0 0 0 0
0 0 0 0 0 0 0 0 0 0 0 0 0 0 0 0 0 0 0 0 0 0 0 0 0 0 0 0 0 0 0 0 0 0 0 0 0 0 0 0 0 0 0 0 0 0 0 0 0 0 0 0 0 0
0 0 0 0 0 0 0 0 0 0 0 0 0 0 0 0 0 0 0 0 0 0 0 0 0 0 0 0 0 0 0 0 0 0 0 0 0 0 0 0 0 0 0 0 0 0 0 0 0 0 0 0 0 0
0 0 0 0 0 0 0 0 0 0 0 0 0 0 0 0 0 0 0 0 0 0 0 0 0 0 0 0 0 0 0 0 0 0 0 0 0 0 0 0 0 0 0 0 0 0 0 0 0 0 0 0 0 0
0 0 0 0 0 0 0 0 0 0 0 0 0 0 0 0 0 0 0 0 0 0 0 0 0 0 0 0 0 0 0 0 0 0 0 0 0 0 0 0 0 0 0 0 0 0 0 0 0 0 0 0 0 0
0 0 0 0 0 0 0 0 0 0 0 0 0 0 0 0 0 0 0 0 0 0 0 0 0 0 0 0 0 0 0 0 0 0 0 0 0 0 0 0 0 0 0 0 0 0 0 0 0 0 0 0 0 0
0 0 0 0 0 0 0 0 0 0 0 0 0 0 0 0 0 0 0 0 0 0 0 0 0 0 0 0 0 0 0 0 0 0 0 0 0 0 0 0 0 0 0 0 0 0 0 0 0 0 0 0 0 0
0 0 0 0 0 0 0 0 0 0 0 0 0 0 0 0 0 0 0 0 0 0 0 0 0 0 0 0 0 0 0 0 0 0 0 0 0 0 0 0 0 0 0 0 0 0 0 0 0 0 0 0 0 0
0 0 0 0 0 0 0 0 0 0 0 0 0 0 0 0 0 0 0 0 0 0 0 0 0 0 0 0 0 0 0 0 0 0 0 0 0 0 0 0 0 0 0 0 0 0 0 0 0 0 0 0 0 0
0 0 0 0 0 0 0 0 0 0 0 0 0 0 0 0 0 0 0 0 0 0 0 0 0 0 0 0 0 0 0 0 0 0 0 0 0 0 0 0 0 0 0 0 0 0 0 0 0 0 0 0 0 0
0 0 0 0 0 0 0 0 0 0 0 0 0 0 0 0 0 0 0 0 0 0 0 0 0 0 0 0 0 0 0 0 0 0 0 0 0 0 0 0 0 0 -0 0 0 0 0 0 0 0 0 0 0 0
0 0 0 0 0 0 0 0 0 0 0 0 0 0 0 0 0 0 0 0 0 0 0 0 0 0 0 0 0 0 0 0 0 0 0 0 0 0 0 0 0 0 0 0 0 0 0 0 0 0 0 0 0 0
0 0 0 0 0 0 0 0 0 0 0 0 0 0 0 0 0 0 0 0 0 0 0 0 0 0 0 0 0 0 0 0 0 0 0 0 0 0 0 0 0 0 0 0 0 0 0 0 0 0 0 0 0 0
0 0 0 0 0 0 0 0 0 0 0 0 0 0 0 0 0 0 0 0 0 0 0 0 0 0 0 0 0 0 0 0 0 0 0 0 0 0 0 0 0 0 0 0 0 0 0 0 0 0 0 0 0 0
0 0 0 0 0 0 0 0 0 0 0 0 0 0 0 0 0 0 0 0 0 0 0 0 0 0 0 0 0 0 0 0 0 0 0 0 0 0 0 0 0 0 0 0 0 0 0 0 0 0 0 0 0 0
0 0 0 0 0 0 0 0 0 0 0 0 0 0 0 0 0 0 0 0 0 0 0 0 0 0 0 0 0 0 0 0 0 0 0 0 0 0 0 0 0 0 0 0 0 0 0 0 0 0 0 0 0 0
0 0 0 0 0 0 0 0 0 0 0 0 0 0 0 0 0 0 0 0 0 0 0 0 0 0 0 0 0 0 0 0 0 0 0 0 0 0 0 0 0 0 0 0 0 0 0 0 0 0 0 0 0 0
0 0 0 0 0 0 0 0 0 0 0 0 0 0 0 0 0 0 0 0 0 0 0 0 0 0 0 0 0 0 0 0 0 0 0 0 0 0 0 0 0 0 0 0 0 0 0 0 0 0 0 0 0 0
0 0 0 0 0 0 0 0 0 0 0 0 0 0 0 0 0 0 0 0 0 0 0 0 0 0 0 0 0 0 0 0 0 0 0 0 0 0 0 0 0 0 0 0 0 0 0 0 0 0 0 0 0 0
0 0 0 0 0 0 0 0 0 0 0 0 0 0 0 0 0 0 0 0 0 0 0 0 0 0 0 0 0 0 0 0 0 0 0 0 0 0 0 0 0 0 0 0 0 0 0 0 0 0 0 0 0 0
0 0 0 0 0 0 0 0 0 0 0 0 0 0 0 0 0 0 0 0 0 0 0 0 0 0 0 0 0 0 0 0 0 0 0 0 0 0 0 0 0 0 0 0 0 0 0 0 0 0 0 0 0 0
0 0 0 0 0 0 0 0 0 0 0 0 0 0 0 0 0 0 0 0 0 0 0 0 0 0 0 0 0 0 0 0 0 0 0 0 0 0 0 0 0 0 0 0 0 0 0 0 0 0 0 0 0 0
0 0 0 0 0 0 0 0 0 0 0 0 0 0 0 0 0 0 0 0 0 0 0 0 0 0 0 0 0 0 0 0 0 0 0 0 0 0 0 0 0 0 0 0 0 0 0 0 0 0 0 0 0 0
0 0 0 0 0 0 0 0 0 0 0 0 0 0 0 0 0 0 0 0 0 0 0 0 0 0 0 0 0 0 0 0 0 0 0 0 0 0 0 0 0 0 0 0 0 0 0 0 0 0 0 0 0 0
0 0 0 0 0 0 0 0 0 0 0 0 0 0 0 0 0 0 0 0 0 0 0 0 0 0 0 0 0 0 0 0 0 0 0 0 0 0 0 0 0 0 0 0 0 0 0 0 0 0 0 0 0 0
0 0 0 0 0 0 0 0 0 0 0 0 0 0 0 0 0 0 0 0 0 0 0 0 0 0 0 0 0 0 0 0 0 0 0 0 0 0 0 0 0 0 0 0 0 0 0 0 0 0 0 0 0 0
0 0 0 0 0 0 0 0 0 0 0 0 0 0 0 0 0 0 0 0 0 0 0 0 0 0 0 0 0 0 0 0 0 0 0 0 0 0 0 0 0 0 0 0 0 0 0 0 0 0 0 0 0 0
0 0 0 0 0 0 0 0 0 0 0 0 0 0 0 0 0 0 0 0 0 0 0 0 0 0 0 0 0 0 0 0 0 0 0 0 0 0 0 0 0 0 0 0 0 0 0 0 0 0 0 0 0 0
0 0 0 0 0 0 0 0 0 0 0 0 0 0 0 0 0 0 0 0 0 0 0 0 0 0 0 0 0 0 0 0 0 0 0 0 0 0 0 0 0 0 0 0 0 0 0 0 0 0 0 0 0 0
0 0 0 0 0 0 0 0 0 0 0 0 0 0 0 0 0 0 0 0 0 0 0 0 0 0 0 0 0 0 0 0 0 0 0 0 0 0 0 0 0 0 0 0 0 0 0 0 0 0 0 0 0 0
0 0 0 0 0 0 0 0 0 0 0 0 0 0 0 0 0 0 0 0 0 0 0 0 0 0 0 0 0 0 0 0 0 0 0 0 0 0 0 0 0 0 0 0 0 0 0 0 0 0 0 0 0 0
Wind_Speed_500mb
78 67 61 58 58 59 58 53 48 41 36 31 29 24 20 18 16 15 13 14 16 7 11 15 12 9 12 11 8 17 9 3 5 4 7 5 6 8 1 7 9 12 12 8 3 1 17 2 2 5 16 41 44 47
83 73 65 60 60 61 61 58 50 44 38 34 29 26 22 19 17 16 15 12 12 10 6 11 17 17 16 11 8 27 4 8 17 7 1 5 4 2 4 7 4 5 12 7 18 14 2 13 19 27 34 35 42 51
90 81 71 65 61 64 66 60 54 48 41 34 29 26 23 20 18 16 15 13 11 8 6 9 12 17 20 21 20 10 10 14 13 11 13 3 6 7 6 11 2 8 11 6 6 6 22 27 33 41 50 55 60 62
93 87 76 69 64 69 69 63 56 50 42 36 30 25 22 18 17 15 15 13 13 7 7 6 12 10 12 19 24 26 18 13 12 12 5 5 4 17 5 4 6 7 5 5 10 14 23 35 47 58 62 68 76 77
99 94 81 70 65 73 71 65 58 51 44 37 31 26 21 17 15 12 10 9 13 11 8 11 11 9 11 13 14 17 19 20 13 7 6 5 7 7 2 3 6 5 3 2 1 19 11 27 51 66 69 72 75 75
103 99 86 70 65 74 74 68 60 51 43 36 31 25 20 17 14 9 7 7 9 10 9 4 7 4 5 7 9 11 16 17 14 10 9 9 8 8 4 6 8 8 14 18 8 31 44 49 60 64 64 67 70 76
108 105 88 73 70 76 76 68 62 52 44 38 32 27 21 17 16 10 7 12 12 8 5 7 3 5 4 6 7 8 14 10 12 8 7 6 5 13 3 5 3 4 13 17 31 41 45 51 62 70 72 71 71 73
110 106 87 74 74 80 77 68 60 52 45 38 32 27 23 16 11 10 10 8 1 2 5 8 2 6 3 5 5 5 7 12 8 5 5 5 5 7 6 2 12 17 5 20 35 39 46 55 65 71 74 73 76 78
109 108 93 81 78 83 76 69 60 53 44 38 35 28 20 10 8 8 9 8 7 4 6 4 7 6 5 5 5 5 7 1 3 4 3 4 2 8 7 16 17 19 23 38 45 50 57 61 71 73 73 71 71 76
115 113 99 86 84 82 74 68 62 54 48 44 36 15 11 13 12 7 1 4 5 4 6 5 7 2 3 2 3 2 2 2 2 5 9 2 5 13 19 17 19 23 32 41 53 61 69 72 73 71 73 72 71 76
124 116 102 91 88 84 80 74 64 55 48 43 19 11 22 23 12 4 6 5 2 3 4 6 8 5 3 3 2 4 4 3 4 6 2 4 5 18 10 26 36 38 45 48 48 55 62 61 70 72 75 74 75 74
125 116 104 95 94 92 83 74 65 63 45 32 18 31 22 9 5 8 1 1 1 7 10 8 7 7 6 3 3 3 5 3 6 11 5 6 7 25 29 45 52 56 57 62 63 67 69 68 70 71 73 74 70 70
131 117 103 100 99 90 80 71 65 60 48 40 10 11 11 4 8 12 13 7 2 18 18 14 7 5 6 3 9 4 5 7 4 5 7 8 15 29 45 52 61 61 62 64 68 71 74 78 77 72 74 69 69 72
130 114 110 107 97 86 78 75 70 64 36 11 13 2 7 3 9 9 8 7 13 19 36 23 13 4 4 6 3 6 3 3 4 3 10 7 15 55 64 65 66 70 68 64 67 73 82 81 80 82 76 73 73 71
123 115 108 99 93 86 81 74 74 63 12 11 14 11 8 9 6 18 26 26 29 41 32 18 12 4 7 7 4 5 5 7 11 9 5 16 45 54 61 67 67 67 63 64 69 76 82 81 80 82 82 76 68 70
120 108 106 105 92 86 80 80 74 42 11 10 10 10 20 14 12 23 27 38 42 36 22 10 9 6 3 6 3 11 8 12 7 10 31 40 54 61 65 71 72 63 60 65 71 82 82 84 82 82 82 81 76 76
127 96 111 97 91 88 83 79 51 14 12 11 5 15 23 13 33 32 40 33 40 29 8 10 9 11 11 5 5 9 10 7 27 54 60 62 67 71 75 73 64 59 63 67 81 85 87 88 84 80 80 79 75 74
98 115 103 110 109 92 76 37 14 14 8 9 13 23 21 22 41 40 31 41 27 17 16 7 15 5 8 10 8 10 17 46 59 66 69 69 73 73 69 64 63 66 71 82 82 88 90 83 76 75 74 70 72 83
125 117 117 114 106 71 16 13 9 12 7 14 16 36 21 35 37 37 35 38 22 24 13 10 6 6 7 18 16 32 49 52 63 62 60 62 63 65 68 71 75 80 83 81 88 89 80 74 71 68 63 71 80 80
120 120 117 106 69 18 14 11 17 11 11 16 25 31 24 22 37 38 38 40 32 15 9 7 17 20 33 41 43 41 37 34 41 54 61 65 66 68 74 78 80 79 81 87 85 76 76 79 76 68 69 74 76 79
122 119 107 75 42 21 14 13 11 11 21 13 35 26 14 32 27 26 26 38 21 11 14 27 38 48 47 46 36 39 42 48 49 55 69 77 74 82 84 80 78 80 79 75 78 81 78 77 73 71 74 74 74 78
98 105 83 44 16 12 11 9 19 23 10 21 25 16 15 13 14 18 19 19 13 29 37 37 37 42 45 47 49 48 55 64 55 61 64 66 76 85 86 79 78 73 72 74 74 76 76 72 70 69 70 76 75 73
100 80 35 14 12 10 10 19 9 8 10 13 16 9 4 5 6 17 8 11 19 40 38 34 38 42 42 44 46 47 44 49 57 67 68 70 76 75 71 66 66 70 76 74 66 66 68 69 69 70 71 70 69 71
65 19 11 11 10 8 14 5 9 12 11 7 7 5 4 10 13 6 4 12 41 42 36 31 36 48 49 51 51 56 58 61 69 70 67 75 71 63 65 66 65 64 61 65 64 64 66 68 69 71 70 71 71 72
20 7 12 11 11 13 8 4 5 6 6 4 7 4 7 11 4 1 6 20 39 39 34 38 36 41 50 59 62 61 59 63 67 71 67 53 60 67 67 64 61 57 58 62 67 72 75 72 70 70 71 71 72 72
11 6 7 11 11 10 12 10 10 9 7 6 5 9 9 8 5 11 10 20 27 27 27 38 40 42 54 59 60 58 60 60 64 58 48 54 55 59 62 65 68 63 59 60 64 70 72 72 73 72 73 70 69 71
10 5 9 13 19 24 15 13 14 10 8 11 11 10 6 6 12 13 19 23 22 23 33 41 47 57 64 58 55 54 58 55 44 48 50 48 45 44 46 50 55 57 58 59 61 64 69 70 70 69 71 71 69 69
9 21 15 27 15 10 14 9 9 11 10 18 31 9 18 17 12 14 17 23 34 52 56 57 60 61 57 50 48 45 34 39 44 43 43 40 35 35 37 40 45 49 52 53 54 56 59 63 66 68 70 74 75 67
9 27 35 11 11 9 12 14 23 16 23 34 18 8 15 18 32 35 39 49 60 63 68 69 63 52 43 38 25 25 34 37 39 42 42 43 41 37 41 42 46 47 51 53 49 50 53 57 61 63 64 66 66 65
16 33 14 11 12 9 15 24 18 25 31 33 29 22 28 41 47 49 58 66 72 70 63 53 40 33 24 19 23 28 30 32 32 34 41 43 47 45 47 48 51 52 55 56 58 59 58 61 63 65 67 68 68 70
39 13 9 8 7 12 17 30 20 22 27 29 35 37 48 49 55 64 61 56 50 41 32 25 20 18 16 24 34 36 30 29 33 35 41 47 49 50 51 52 53 56 58 61 64 66 67 69 70 71 71 71 69 68
18 11 13 6 5 13 16 21 16 14 14 23 28 35 36 32 21 31 38 30 23 17 15 14 15 17 21 33 32 34 35 37 37 42 47 52 55 56 57 58 58 61 63 65 68 70 71 72 75 74 73 73 71 68
12 15 11 12 12 13 13 13 10 5 10 10 14 19 19 12 15 16 20 21 16 16 15 16 16 17 31 34 30 33 34 37 43 46 51 56 61 62 62 63 65 66 69 70 71 71 73 75 77 76 74 72 71 68
Wind_Direction_500mb
223 223 225 223 218 211 208 209 211 213 215 216 220 228 233 231 233 238 231 231 218 216 189 198 197 181 171 183 148 159 109 215 66 105 140 219 169 221 60 234 197 170 163 207 100 73 282 305 66 110 332 337 339 331
220 222 223 222 217 211 206 208 207 211 213 215 219 226 231 234 234 228 226 224 222 212 166 196 212 217 219 206 207 180 221 179 181 88 210 101 208 113 158 265 347 280 199 185 187 217 45 10 353 0 358 346 345 345
217 217 218 219 216 207 204 205 205 207 209 213 220 229 233 236 236 233 222 212 208 205 182 202 210 226 223 221 215 212 218 203 199 195 165 155 228 128 193 238 285 245 201 222 48 323 352 35 25 12 359 351 345 340
215 216 216 217 216 203 201 201 202 204 207 211 217 229 236 236 234 228 216 209 203 175 166 182 194 199 217 226 227 230 239 206 189 192 204 138 177 200 237 251 194 230 154 197 262 346 348 13 1 349 343 341 339 334
213 212 213 213 214 200 199 198 200 203 204 209 213 219 227 229 224 212 202 202 197 194 150 153 189 231 229 234 233 231 230 219 190 188 174 225 213 185 66 13 260 258 273 174 329 359 340 323 339 343 337 333 330 323
210 208 208 210 213 199 195 195 198 201 205 208 212 217 217 213 208 198 188 213 181 167 150 121 191 183 203 210 210 207 207 204 196 201 215 230 217 207 144 202 344 83 88 76 14 358 344 335 334 335 324 318 315 318
207 205 204 206 208 198 194 195 196 198 201 205 206 203 199 200 195 195 163 159 163 129 135 110 130 154 171 182 178 178 191 192 204 212 236 261 225 206 125 222 3 33 132 12 354 344 329 331 320 326 323 318 315 314
204 202 200 203 204 194 192 193 193 190 193 190 187 176 188 191 191 195 195 211 210 186 191 108 288 193 167 169 187 182 182 192 213 225 247 246 240 227 249 234 91 59 337 333 334 333 318 316 317 322 328 326 320 317
201 200 198 198 197 191 187 186 182 179 177 165 166 168 166 181 201 194 229 217 218 225 122 109 150 222 154 135 144 160 188 161 241 242 258 273 285 229 175 106 41 1 344 327 323 318 319 321 325 324 327 323 318 318
197 197 195 194 192 183 177 176 173 171 165 164 162 161 164 161 150 165 135 87 102 131 132 144 166 113 11 135 100 142 157 144 186 263 308 151 259 185 116 52 2 345 332 325 321 322 326 320 321 324 323 324 322 322
196 192 190 187 178 173 175 176 174 166 167 167 168 141 142 151 152 139 81 67 15 65 155 130 178 146 95 79 142 38 171 339 45 280 115 319 280 154 96 353 350 342 341 337 328 325 330 326 326 326 325 324 323 324
197 189 187 178 174 174 178 176 172 173 170 171 162 127 139 164 135 91 281 278 135 213 160 153 137 125 130 145 148 39 124 40 249 335 48 276 243 154 339 338 342 345 341 337 336 336 334 332 331 328 324 325 326 327
192 188 179 172 172 176 178 175 177 174 157 137 119 134 159 152 45 155 192 268 276 172 169 158 135 146 132 130 83 72 66 230 295 45 237 233 156 335 339 341 340 339 337 335 333 333 332 332 331 332 328 328 329 327
189 185 170 168 173 178 177 179 170 163 143 128 151 126 178 225 245 187 176 166 153 157 150 141 119 107 115 81 50 88 239 59 13 320 238 243 319 339 338 335 334 333 333 330 330 333 334 333 330 329 328 327 326 324
179 168 165 169 175 173 174 173 164 158 134 158 171 195 187 166 138 154 138 129 133 143 140 121 97 115 50 81 53 101 16 262 210 231 231 325 326 331 328 330 329 326 325 326 327 328 329 329 326 322 322 321 319 314
163 158 168 171 167 166 165 162 166 154 145 186 197 109 135 123 144 154 150 142 148 149 132 116 108 69 302 127 94 220 145 228 250 217 312 311 325 325 326 326 321 320 321 324 325 322 322 322 321 318 315 316 316 314
158 156 163 162 159 163 161 158 153 147 190 181 169 185 164 156 171 161 160 154 154 151 141 137 133 203 123 67 246 192 210 220 316 317 326 327 323 321 321 320 317 318 318 317 318 319 320 320 319 316 317 318 314 313
154 154 157 156 159 156 150 154 140 161 147 162 174 180 168 151 158 156 162 158 154 166 149 178 134 148 207 190 233 233 264 319 326 325 324 321 319 317 316 316 316 316 311 312 315 318 319 320 319 319 318 314 312 313
151 153 161 161 156 138 129 154 132 129 130 150 157 157 143 145 155 156 158 164 166 160 159 172 105 197 236 227 258 307 318 319 319 319 320 326 326 323 319 315 310 307 311 314 317 318 317 317 318 319 314 310 315 320
153 157 160 159 147 105 103 113 144 140 147 156 150 154 139 155 156 162 169 173 166 161 189 192 223 236 256 275 295 301 304 312 312 311 315 320 324 325 317 310 309 312 313 315 316 318 319 319 320 320 317 318 320 322
151 153 153 144 109 91 99 133 123 119 131 140 148 142 136 153 164 177 179 188 184 203 224 234 264 291 295 294 285 285 289 298 303 310 311 308 315 318 319 317 314 315 317 319 321 322 321 320 320 319 317 318 320 321
142 152 137 136 83 83 87 109 124 123 112 129 138 134 137 162 170 184 182 181 217 239 247 267 300 308 300 295 292 293 297 300 293 310 314 303 307 316 318 319 318 319 320 322 322 318 318 319 319 320 319 321 322 323
133 136 117 84 95 82 119 126 102 105 111 144 128 102 98 132 167 169 202 222 238 253 260 291 308 299 294 300 299 302 308 309 307 314 313 308 312 315 315 317 319 320 322 323 323 321 319 320 322 322 324 326 327 328
134 107 91 93 94 103 140 92 96 106 114 102 92 118 213 174 160 185 240 244 251 265 278 271 307 304 292 296 303 308 309 308 309 308 308 310 312 315 318 320 322 326 327 325 326 323 322 324 327 329 331 330 330 330
95 89 112 78 121 119 94 72 66 85 107 135 126 183 157 158 99 168 230 257 269 270 264 257 285 297 299 298 301 307 306 303 302 304 310 310 316 318 321 325 328 331 329 327 329 328 328 329 328 329 328 328 327 328
89 96 104 142 158 127 158 128 163 149 119 144 186 125 132 120 124 235 228 247 258 252 270 276 280 294 308 306 302 301 298 297 301 303 313 318 323 323 323 326 329 334 332 331 329 327 327 328 327 328 326 327 326 327
108 152 135 130 131 129 99 91 127 125 147 168 166 153 114 154 229 249 231 231 226 268 290 290 290 300 305 303 294 292 294 297 299 308 316 321 323 322 321 323 326 329 329 329 328 328 327 327 327 328 327 328 329 330
115 153 144 147 124 130 123 125 137 179 172 162 144 173 179 197 221 226 267 268 288 299 301 302 303 302 297 289 290 293 291 299 305 310 316 322 328 328 329 330 329 331 330 331 330 330 330 330 331 331 332 331 332 332
116 136 135 83 110 144 170 168 196 186 181 174 175 195 219 219 256 277 288 289 292 298 301 302 297 291 284 286 283 292 302 305 311 318 323 328 331 338 335 334 334 334 333 335 339 337 336 337 338 335 333 331 333 334
146 150 117 142 139 191 184 185 187 202 200 203 216 235 250 259 273 283 287 292 296 296 293 290 284 278 272 268 287 301 307 308 313 315 317 320 323 328 329 330 330 330 330 332 333 335 337 336 338 340 340 340 341 338
150 135 108 127 175 175 186 195 198 205 209 222 235 248 260 274 282 291 294 293 292 290 285 276 260 243 259 300 312 315 320 316 318 318 318 319 319 320 320 320 321 321 323 325 326 328 330 331 332 334 335 336 337 337
146 158 129 114 152 174 172 181 193 204 220 236 247 258 270 279 281 282 279 286 288 279 266 248 238 248 294 317 319 318 316 318 319 319 317 314 314 315 314 315 316 317 318 318 321 322 322 324 325 326 326 328 330 333
118 141 120 117 135 161 161 153 170 214 235 238 245 260 260 253 249 253 271 285 281 269 250 239 253 277 316 322 319 317 314 314 317 317 315 313 313 312 313 315 316 317 318 318 318 320 320 320 320 322 322 322 323 326
Wind_Speed_850mb
78 67 61 58 58 59 58 53 48 41 36 31 29 24 20 18 16 15 13 14 16 7 11 15 12 9 12 11 8 17 9 3 5 4 7 5 6 8 1 7 9 12 12 8 3 1 17 2 2 5 16 41 44 47
83 73 65 60 60 61 61 58 50 44 38 34 29 26 22 19 17 16 15 12 12 10 6 11 17 17 16 11 8 27 4 8 17 7 1 5 4 2 4 7 4 5 12 7 18 14 2 13 19 27 34 35 42 51
90 81 71 65 61 64 66 60 54 48 41 34 29 26 23 20 18 16 15 13 11 8 6 9 12 17 20 21 20 10 10 14 13 11 13 3 6 7 6 11 2 8 11 6 6 6 22 27 33 41 50 55 60 62
93 87 76 69 64 69 69 63 56 50 42 36 30 25 22 18 17 15 15 13 13 7 7 6 12 10 12 19 24 26 18 13 12 12 5 5 4 17 5 4 6 7 5 5 10 14 23 35 47 58 62 68 76 77
99 94 81 70 65 73 71 65 58 51 44 37 31 26 21 17 15 12 10 9 13 11 8 11 11 9 11 13 14 17 19 20 13 7 6 5 7 7 2 3 6 5 3 2 1 19 11 27 51 66 69 72 75 75
103 99 86 70 65 74 74 68 60 51 43 36 31 25 20 17 14 9 7 7 9 10 9 4 7 4 5 7 9 11 16 17 14 10 9 9 8 8 4 6 8 8 14 18 8 31 44 49 60 64 64 67 70 76
108 105 88 73 70 76 76 68 62 52 44 38 32 27 21 17 16 10 7 12 12 8 5 7 3 5 4 6 7 8 14 10 12 8 7 6 5 13 3 5 3 4 13 17 31 41 45 51 62 70 72 71 71 73
110 106 87 74 74 80 77 68 60 52 45 38 32 27 23 16 11 10 10 8 1 2 5 8 2 6 3 5 5 5 7 12 8 5 5 5 5 7 6 2 12 17 5 20 35 39 46 55 65 71 74 73 76 78
109 108 93 81 78 83 76 69 60 53 44 38 35 28 20 10 8 8 9 8 7 4 6 4 7 6 5 5 5 5 7 1 3 4 3 4 2 8 7 16 17 19 23 38 45 50 57 61 71 73 73 71 71 76
115 113 99 86 84 82 74 68 62 54 48 44 36 15 11 13 12 7 1 4 5 4 6 5 7 2 3 2 3 2 2 2 2 5 9 2 5 13 19 17 19 23 32 41 53 61 69 72 73 71 73 72 71 76
124 116 102 91 88 84 80 74 64 55 48 43 19 11 22 23 12 4 6 5 2 3 4 6 8 5 3 3 2 4 4 3 4 6 2 4 5 18 10 26 36 38 45 48 48 55 62 61 70 72 75 74 75 74
125 116 104 95 94 92 83 74 65 63 45 32 18 31 22 9 5 8 1 1 1 7 10 8 7 7 6 3 3 3 5 3 6 11 5 6 7 25 29 45 52 56 57 62 63 67 69 68 70 71 73 74 70 70
131 117 103 100 99 90 80 71 65 60 48 40 10 11 11 4 8 12 13 7 2 18 18 14 7 5 6 3 9 4 5 7 4 5 7 8 15 29 45 52 61 61 62 64 68 71 74 78 77 72 74 69 69 72
130 114 110 107 97 86 78 75 70 64 36 11 13 2 7 3 9 9 8 7 13 19 36 23 13 4 4 6 3 6 3 3 4 3 10 7 15 55 64 65 66 70 68 64 67 73 82 81 80 82 76 73 73 71
123 115 108 99 93 86 81 74 74 63 12 11 14 11 8 9 6 18 26 26 29 41 32 18 12 4 7 7 4 5 5 7 11 9 5 16 45 54 61 67 67 67 63 64 69 76 82 81 80 82 82 76 68 70
120 108 106 105 92 86 80 80 74 42 11 10 10 10 20 14 12 23 27 38 42 36 22 10 9 6 3 6 3 11 8 12 7 10 31 40 54 61 65 71 72 63 60 65 71 82 82 84 82 82 82 81 76 76
127 96 111 97 91 88 83 79 51 14 12 11 5 15 23 13 33 32 40 33 40 29 8 10 9 11 11 5 5 9 10 7 27 54 60 62 67 71 75 73 64 59 63 67 81 85 87 88 84 80 80 79 75 74
98 115 103 110 109 92 76 37 14 14 8 9 13 23 21 22 41 40 31 41 27 17 16 7 15 5 8 10 8 10 17 46 59 66 69 69 73 73 69 64 63 66 71 82 82 88 90 83 76 75 74 70 72 83
125 117 117 114 106 71 16 13 9 12 7 14 16 36 21 35 37 37 35 38 22 24 13 10 6 6 7 18 16 32 49 52 63 62 60 62 63 65 68 71 75 80 83 81 88 89 80 74 71 68 63 71 80 80
120 120 117 106 69 18 14 11 17 11 11 16 25 31 24 22 37 38 38 40 32 15 9 7 17 20 33 41 43 41 37 34 41 54 61 65 66 68 74 78 80 79 81 87 85 76 76 79 76 68 69 74 76 79
122 119 107 75 42 21 14 13 11 11 21 13 35 26 14 32 27 26 26 38 21 11 14 27 38 48 47 46 36 39 42 48 49 55 69 77 74 82 84 80 78 80 79 75 78 81 78 77 73 71 74 74 74 78
98 105 83 44 16 12 11 9 19 23 10 21 25 16 15 13 14 18 19 19 13 29 37 37 37 42 45 47 49 48 55 64 55 61 64 66 76 85 86 79 78 73 72 74 74 76 76 72 70 69 70 76 75 73
100 80 35 14 12 10 10 19 9 8 10 13 16 9 4 5 6 17 8 11 19 40 38 34 38 42 42 44 46 47 44 49 57 67 68 70 76 75 71 66 66 70 76 74 66 66 68 69 69 70 71 70 69 71
65 19 11 11 10 8 14 5 9 12 11 7 7 5 4 10 13 6 4 12 41 42 36 31 36 48 49 51 51 56 58 61 69 70 67 75 71 63 65 66 65 64 61 65 64 64 66 68 69 71 70 71 71 72
20 7 12 11 11 13 8 4 5 6 6 4 7 4 7 11 4 1 6 20 39 39 34 38 36 41 50 59 62 61 59 63 67 71 67 53 60 67 67 64 61 57 58 62 67 72 75 72 70 70 71 71 72 72
11 6 7 11 11 10 12 10 10 9 7 6 5 9 9 8 5 11 10 20 27 27 27 38 40 42 54 59 60 58 60 60 64 58 48 54 55 59 62 65 68 63 59 60 64 70 72 72 73 72 73 70 69 71
10 5 9 13 19 24 15 13 14 10 8 11 11 10 6 6 12 13 19 23 22 23 33 41 47 57 64 58 55 54 58 55 44 48 50 48 45 44 46 50 55 57 58 59 61 64 69 70 70 69 71 71 69 69
9 21 15 27 15 10 14 9 9 11 10 18 31 9 18 17 12 14 17 23 34 52 56 57 60 61 57 50 48 45 34 39 44 43 43 40 35 35 37 40 45 49 52 53 54 56 59 63 66 68 70 74 75 67
9 27 35 11 11 9 12 14 23 16 23 34 18 8 15 18 32 35 39 49 60 63 68 69 63 52 43 38 25 25 34 37 39 42 42 43 41 37 41 42 46 47 51 53 49 50 53 57 61 63 64 66 66 65
16 33 14 11 12 9 15 24 18 25 31 33 29 22 28 41 47 49 58 66 72 70 63 53 40 33 24 19 23 28 30 32 32 34 41 43 47 45 47 48 51 52 55 56 58 59 58 61 63 65 67 68 68 70
39 13 9 8 7 12 17 30 20 22 27 29 35 37 48 49 55 64 61 56 50 41 32 25 20 18 16 24 34 36 30 29 33 35 41 47 49 50 51 52 53 56 58 61 64 66 67 69 70 71 71 71 69 68
18 11 13 6 5 13 16 21 16 14 14 23 28 35 36 32 21 31 38 30 23 17 15 14 15 17 21 33 32 34 35 37 37 42 47 52 55 56 57 58 58 61 63 65 68 70 71 72 75 74 73 73 71 68
12 15 11 12 12 13 13 13 10 5 10 10 14 19 19 12 15 16 20 21 16 16 15 16 16 17 31 34 30 33 34 37 43 46 51 56 61 62 62 63 65 66 69 70 71 71 73 75 77 76 74 72 71 68
Wind_Direction_850mb
223 223 225 223 218 211 208 209 211 213 215 216 220 228 233 231 233 238 231 231 218 216 189 198 197 181 171 183 148 159 109 215 66 105 140 219 169 221 60 234 197 170 163 207 100 73 282 305 66 110 332 337 339 331
220 222 223 222 217 211 206 208 207 211 213 215 219 226 231 234 234 228 226 224 222 212 166 196 212 217 219 206 207 180 221 179 181 88 210 101 208 113 158 265 347 280 199 185 187 217 45 10 353 0 358 346 345 345
217 217 218 219 216 207 204 205 205 207 209 213 220 229 233 236 236 233 222 212 208 205 182 202 210 226 223 221 215 212 218 203 199 195 165 155 228 128 193 238 285 245 201 222 48 323 352 35 25 12 359 351 345 340
215 216 216 217 216 203 201 201 202 204 207 211 217 229 236 236 234 228 216 209 203 175 166 182 194 199 217 226 227 230 239 206 189 192 204 138 177 200 237 251 194 230 154 197 262 346 348 13 1 349 343 341 339 334
213 212 213 213 214 200 199 198 200 203 204 209 213 219 227 229 224 212 202 202 197 194 150 153 189 231 229 234 233 231 230 219 190 188 174 225 213 185 66 13 260 258 273 174 329 359 340 323 339 343 337 333 330 323
210 208 208 210 213 199 195 195 198 201 205 208 212 217 217 213 208 198 188 213 181 167 150 121 191 183 203 210 210 207 207 204 196 201 215 230 217 207 144 202 344 83 88 76 14 358 344 335 334 335 324 318 315 318
207 205 204 206 208 198 194 195 196 198 201 205 206 203 199 200 195 195 163 159 163 129 135 110 130 154 171 182 178 178 191 192 204 212 236 261 225 206 125 222 3 33 132 12 354 344 329 331 320 326 323 318 315 314
204 202 200 203 204 194 192 193 193 190 193 190 187 176 188 191 191 195 195 211 210 186 191 108 288 193 167 169 187 182 182 192 213 225 247 246 240 227 249 234 91 59 337 333 334 333 318 316 317 322 328 326 320 317
201 200 198 198 197 191 187 186 182 179 177 165 166 168 166 181 201 194 229 217 218 225 122 109 150 222 154 135 144 160 188 161 241 242 258 273 285 229 175 106 41 1 344 327 323 318 319 321 325 324 327 323 318 318
197 197 195 194 192 183 177 176 173 171 165 164 162 161 164 161 150 165 135 87 102 131 132 144 166 113 11 135 100 142 157 144 186 263 308 151 259 185 116 52 2 345 332 325 321 322 326 320 321 324 323 324 322 322
196 192 190 187 178 173 175 176 174 166 167 167 168 141 142 151 152 139 81 67 15 65 155 130 178 146 95 79 142 38 171 339 45 280 115 319 280 154 96 353 350 342 341 337 328 325 330 326 326 326 325 324 323 324
197 189 187 178 174 174 178 176 172 173 170 171 162 127 139 164 135 91 281 278 135 213 160 153 137 125 130 145 148 39 124 40 249 335 48 276 243 154 339 338 342 345 341 337 336 336 334 332 331 328 324 325 326 327
192 188 179 172 172 176 178 175 177 174 157 137 119 134 159 152 45 155 192 268 276 172 169 158 135 146 132 130 83 72 66 230 295 45 237 233 156 335 339 341 340 339 337 335 333 333 332 332 331 332 328 328 329 327
189 185 170 168 173 178 177 179 170 163 143 128 151 126 178 225 245 187 176 166 153 157 150 141 119 107 115 81 50 88 239 59 13 320 238 243 319 339 338 335 334 333 333 330 330 333 334 333 330 329 328 327 326 324
179 168 165 169 175 173 174 173 164 158 134 158 171 195 187 166 138 154 138 129 133 143 140 121 97 115 50 81 53 101 16 262 210 231 231 325 326 331 328 330 329 326 325 326 327 328 329 329 326 322 322 321 319 314
163 158 168 171 167 166 165 162 166 154 145 186 197 109 135 123 144 154 150 142 148 149 132 116 108 69 302 127 94 220 145 228 250 217 312 311 325 325 326 326 321 320 321 324 325 322 322 322 321 318 315 316 316 314
158 156 163 162 159 163 161 158 153 147 190 181 169 185 164 156 171 161 160 154 154 151 141 137 133 203 123 67 246 192 210 220 316 317 326 327 323 321 321 320 317 318 318 317 318 319 320 320 319 316 317 318 314 313
154 154 157 156 159 156 150 154 140 161 147 162 174 180 168 151 158 156 162 158 154 166 149 178 134 148 207 190 233 233 264 319 326 325 324 321 319 317 316 316 316 316 311 312 315 318 319 320 319 319 318 314 312 313
151 153 161 161 156 138 129 154 132 129 130 150 157 157 143 145 155 156 158 164 166 160 159 172 105 197 236 227 258 307 318 319 319 319 320 326 326 323 319 315 310 307 311 314 317 318 317 317 318 319 314 310 315 320
153 157 160 159 147 105 103 113 144 140 147 156 150 154 139 155 156 162 169 173 166 161 189 192 223 236 256 275 295 301 304 312 312 311 315 320 324 325 317 310 309 312 313 315 316 318 319 319 320 320 317 318 320 322
151 153 153 144 109 91 99 133 123 119 131 140 148 142 136 153 164 177 179 188 184 203 224 234 264 291 295 294 285 285 289 298 303 310 311 308 315 318 319 317 314 315 317 319 321 322 321 320 320 319 317 318 320 321
142 152 137 136 83 83 87 109 124 123 112 129 138 134 137 162 170 184 182 181 217 239 247 267 300 308 300 295 292 293 297 300 293 310 314 303 307 316 318 319 318 319 320 322 322 318 318 319 319 320 319 321 322 323
133 136 117 84 95 82 119 126 102 105 111 144 128 102 98 132 167 169 202 222 238 253 260 291 308 299 294 300 299 302 308 309 307 314 313 308 312 315 315 317 319 320 322 323 323 321 319 320 322 322 324 326 327 328
134 107 91 93 94 103 140 92 96 106 114 102 92 118 213 174 160 185 240 244 251 265 278 271 307 304 292 296 303 308 309 308 309 308 308 310 312 315 318 320 322 326 327 325 326 323 322 324 327 329 331 330 330 330
95 89 112 78 121 119 94 72 66 85 107 135 126 183 157 158 99 168 230 257 269 270 264 257 285 297 299 298 301 307 306 303 302 304 310 310 316 318 321 325 328 331 329 327 329 328 328 329 328 329 328 328 327 328
89 96 104 142 158 127 158 128 163 149 119 144 186 125 132 120 124 235 228 247 258 252 270 276 280 294 308 306 302 301 298 297 301 303 313 318 323 323 323 326 329 334 332 331 329 327 327 328 327 328 326 327 326 327
108 152 135 130 131 129 99 91 127 125 147 168 166 153 114 154 229 249 231 231 226 268 290 290 290 300 305 303 294 292 294 297 299 308 316 321 323 322 321 323 326 329 329 329 328 328 327 327 327 328 327 328 329 330
115 153 144 147 124 130 123 125 137 179 172 162 144 173 179 197 221 226 267 268 288 299 301 302 303 302 297 289 290 293 291 299 305 310 316 322 328 328 329 330 329 331 330 331 330 330 330 330 331 331 332 331 332 332
116 136 135 83 110 144 170 168 196 186 181 174 175 195 219 219 256 277 288 289 292 298 301 302 297 291 284 286 283 292 302 305 311 318 323 328 331 338 335 334 334 334 333 335 339 337 336 337 338 335 333 331 333 334
146 150 117 142 139 191 184 185 187 202 200 203 216 235 250 259 273 283 287 292 296 296 293 290 284 278 272 268 287 301 307 308 313 315 317 320 323 328 329 330 330 330 330 332 333 335 337 336 338 340 340 340 341 338
150 135 108 127 175 175 186 195 198 205 209 222 235 248 260 274 282 291 294 293 292 290 285 276 260 243 259 300 312 315 320 316 318 318 318 319 319 320 320 320 321 321 323 325 326 328 330 331 332 334 335 336 337 337
146 158 129 114 152 174 172 181 193 204 220 236 247 258 270 279 281 282 279 286 288 279 266 248 238 248 294 317 319 318 316 318 319 319 317 314 314 315 314 315 316 317 318 318 321 322 322 324 325 326 326 328 330 333
118 141 120 117 135 161 161 153 170 214 235 238 245 260 260 253 249 253 271 285 281 269 250 239 253 277 316 322 319 317 314 314 317 317 315 313 313 312 313 315 316 317 318 318 318 320 320 320 320 322 322 322 323 326